owner,sensor,date,latitude,longitude,vertical_datum,sea_water_practical_salinity,qcFlag 
SCCF RECON,ioos:station:SCCF:11:1,2017-08-01T00:00:00Z,26.4679,-82.0631,1.97,28.04,1111122 
SCCF RECON,ioos:station:SCCF:11:1,2017-08-01T01:00:00Z,26.4679,-82.0631,1.996,27.94,1111122 
SCCF RECON,ioos:station:SCCF:11:1,2017-08-01T02:00:00Z,26.4679,-82.0631,2.017,27.95,1111122 
SCCF RECON,ioos:station:SCCF:11:1,2017-08-01T03:00:00Z,26.4679,-82.0631,2.02,27.94,1111122 
SCCF RECON,ioos:station:SCCF:11:1,2017-08-01T04:00:00Z,26.4679,-82.0631,2.0,27.89,1111122 
SCCF RECON,ioos:station:SCCF:11:1,2017-08-01T05:00:00Z,26.4679,-82.0631,1.98,27.94,1111122 
SCCF RECON,ioos:station:SCCF:11:1,2017-08-01T06:00:00Z,26.4679,-82.0631,1.92,27.05,1111122 
SCCF RECON,ioos:station:SCCF:11:1,2017-08-01T07:00:00Z,26.4679,-82.0631,1.97,28.9,1111122 
SCCF RECON,ioos:station:SCCF:11:1,2017-08-01T08:00:00Z,26.4679,-82.0631,1.96,27.99,1111122 
SCCF RECON,ioos:station:SCCF:11:1,2017-08-01T09:00:00Z,26.4679,-82.0631,2.0,28.82,1111122 
SCCF RECON,ioos:station:SCCF:11:1,2017-08-01T10:00:00Z,26.4679,-82.0631,2.079,28.78,1111122 
SCCF RECON,ioos:station:SCCF:11:1,2017-08-01T11:00:00Z,26.4679,-82.0631,2.09,28.03,1111122 
SCCF RECON,ioos:station:SCCF:11:1,2017-08-01T12:00:00Z,26.4679,-82.0631,2.16,29.16,1111122 
SCCF RECON,ioos:station:SCCF:11:1,2017-08-01T13:00:00Z,26.4679,-82.0631,2.19,28.07,1111122 
SCCF RECON,ioos:station:SCCF:11:1,2017-08-01T14:00:00Z,26.4679,-82.0631,2.2,28.23,1111122 
SCCF RECON,ioos:station:SCCF:11:1,2017-08-01T15:00:00Z,26.4679,-82.0631,2.16,27.49,1111122 
SCCF RECON,ioos:station:SCCF:11:1,2017-08-01T16:00:00Z,26.4679,-82.0631,2.1,26.79,1111122 
SCCF RECON,ioos:station:SCCF:11:1,2017-08-01T17:00:00Z,26.4679,-82.0631,2.03,26.46,1111122 
SCCF RECON,ioos:station:SCCF:11:1,2017-08-01T18:00:00Z,26.4679,-82.0631,1.93,25.76,1111122 
SCCF RECON,ioos:station:SCCF:11:1,2017-08-01T19:00:00Z,26.4679,-82.0631,1.849,25.41,1111122 
SCCF RECON,ioos:station:SCCF:11:1,2017-08-01T20:00:00Z,26.4679,-82.0631,1.76,25.31,1111122 
SCCF RECON,ioos:station:SCCF:11:1,2017-08-01T21:00:00Z,26.4679,-82.0631,1.69,26.3,1111122 
SCCF RECON,ioos:station:SCCF:11:1,2017-08-01T22:00:00Z,26.4679,-82.0631,1.7,27.48,1111122 
SCCF RECON,ioos:station:SCCF:11:1,2017-08-01T23:00:00Z,26.4679,-82.0631,1.76,28.74,1111122 
SCCF RECON,ioos:station:SCCF:11:1,2017-08-02T00:00:00Z,26.4679,-82.0631,1.84,27.93,1111122 
SCCF RECON,ioos:station:SCCF:11:1,2017-08-02T01:00:00Z,26.4679,-82.0631,1.912,28.27,1111122 
SCCF RECON,ioos:station:SCCF:11:1,2017-08-02T02:00:00Z,26.4679,-82.0631,1.95,28.21,1111122 
SCCF RECON,ioos:station:SCCF:11:1,2017-08-02T03:00:00Z,26.4679,-82.0631,1.94,27.67,1111122 
SCCF RECON,ioos:station:SCCF:11:1,2017-08-02T04:00:00Z,26.4679,-82.0631,1.95,28.11,1111122 
SCCF RECON,ioos:station:SCCF:11:1,2017-08-02T05:00:00Z,26.4679,-82.0631,1.97,27.97,1111122 
SCCF RECON,ioos:station:SCCF:11:1,2017-08-02T06:00:00Z,26.4679,-82.0631,2.01,28.15,1111122 
SCCF RECON,ioos:station:SCCF:11:1,2017-08-02T07:00:00Z,26.4679,-82.0631,1.982,27.62,1111122 
SCCF RECON,ioos:station:SCCF:11:1,2017-08-02T08:00:00Z,26.4679,-82.0631,1.91,27.05,1111122 
SCCF RECON,ioos:station:SCCF:11:1,2017-08-02T09:00:00Z,26.4679,-82.0631,1.91,27.6,1111122 
SCCF RECON,ioos:station:SCCF:11:1,2017-08-02T10:00:00Z,26.4679,-82.0631,1.989,27.91,1111122 
SCCF RECON,ioos:station:SCCF:11:1,2017-08-02T11:00:00Z,26.4679,-82.0631,2.06,27.67,1111122 
SCCF RECON,ioos:station:SCCF:11:1,2017-08-02T12:00:00Z,26.4679,-82.0631,2.131,27.57,1111122 
SCCF RECON,ioos:station:SCCF:11:1,2017-08-02T13:00:00Z,26.4679,-82.0631,2.2,28.07,1111122 
SCCF RECON,ioos:station:SCCF:11:1,2017-08-02T14:00:00Z,26.4679,-82.0631,2.25,28.55,1111122 
SCCF RECON,ioos:station:SCCF:11:1,2017-08-02T15:00:00Z,26.4679,-82.0631,2.25,28.04,1111122 
SCCF RECON,ioos:station:SCCF:11:1,2017-08-02T16:00:00Z,26.4679,-82.0631,2.21,27.42,1111122 
SCCF RECON,ioos:station:SCCF:11:1,2017-08-02T17:00:00Z,26.4679,-82.0631,2.14,27.11,1111122 
SCCF RECON,ioos:station:SCCF:11:1,2017-08-02T18:00:00Z,26.4679,-82.0631,2.07,26.42,1111122 
SCCF RECON,ioos:station:SCCF:11:1,2017-08-02T19:00:00Z,26.4679,-82.0631,1.966,26.23,1111122 
SCCF RECON,ioos:station:SCCF:11:1,2017-08-02T20:00:00Z,26.4679,-82.0631,1.86,26.03,1111122 
SCCF RECON,ioos:station:SCCF:11:1,2017-08-02T21:00:00Z,26.4679,-82.0631,1.75,25.82,1111122 
SCCF RECON,ioos:station:SCCF:11:1,2017-08-02T22:00:00Z,26.4679,-82.0631,1.69,26.78,1111122 
SCCF RECON,ioos:station:SCCF:11:1,2017-08-02T23:00:00Z,26.4679,-82.0631,1.695,28.19,1111122 
SCCF RECON,ioos:station:SCCF:11:1,2017-08-03T00:00:00Z,26.4679,-82.0631,1.75,28.0,1111122 
SCCF RECON,ioos:station:SCCF:11:1,2017-08-03T01:00:00Z,26.4679,-82.0631,1.851,27.46,1111122 
SCCF RECON,ioos:station:SCCF:11:1,2017-08-03T02:00:00Z,26.4679,-82.0631,1.92,27.18,1111122 
SCCF RECON,ioos:station:SCCF:11:1,2017-08-03T03:00:00Z,26.4679,-82.0631,1.98,27.22,1111122 
SCCF RECON,ioos:station:SCCF:11:1,2017-08-03T04:00:00Z,26.4679,-82.0631,2.042,27.01,1111122 
SCCF RECON,ioos:station:SCCF:11:1,2017-08-03T05:00:00Z,26.4679,-82.0631,2.08,27.48,1111122 
SCCF RECON,ioos:station:SCCF:11:1,2017-08-03T06:00:00Z,26.4679,-82.0631,2.066,27.43,1111122 
SCCF RECON,ioos:station:SCCF:11:1,2017-08-03T07:00:00Z,26.4679,-82.0631,2.04,27.32,1111122 
SCCF RECON,ioos:station:SCCF:11:1,2017-08-03T08:00:00Z,26.4679,-82.0631,2.01,27.22,1111122 
SCCF RECON,ioos:station:SCCF:11:1,2017-08-03T09:00:00Z,26.4679,-82.0631,1.99,27.28,1111122 
SCCF RECON,ioos:station:SCCF:11:1,2017-08-03T10:00:00Z,26.4679,-82.0631,1.97,26.73,1111122 
SCCF RECON,ioos:station:SCCF:11:1,2017-08-03T11:00:00Z,26.4679,-82.0631,1.99,26.83,1111122 
SCCF RECON,ioos:station:SCCF:11:1,2017-08-03T12:00:00Z,26.4679,-82.0631,2.04,25.3,1111122 
SCCF RECON,ioos:station:SCCF:11:1,2017-08-03T13:00:00Z,26.4679,-82.0631,2.14,27.65,1111122 
SCCF RECON,ioos:station:SCCF:11:1,2017-08-03T14:00:00Z,26.4679,-82.0631,2.21,27.8,1111122 
SCCF RECON,ioos:station:SCCF:11:1,2017-08-03T15:00:00Z,26.4679,-82.0631,2.253,27.88,1111122 
SCCF RECON,ioos:station:SCCF:11:1,2017-08-03T16:00:00Z,26.4679,-82.0631,2.27,28.58,1111122 
SCCF RECON,ioos:station:SCCF:11:1,2017-08-03T17:00:00Z,26.4679,-82.0631,2.26,26.32,1111122 
SCCF RECON,ioos:station:SCCF:11:1,2017-08-03T18:00:00Z,26.4679,-82.0631,2.187,26.54,1111122 
SCCF RECON,ioos:station:SCCF:11:1,2017-08-03T19:00:00Z,26.4679,-82.0631,2.09,26.48,1111122 
SCCF RECON,ioos:station:SCCF:11:1,2017-08-03T20:00:00Z,26.4679,-82.0631,1.98,26.62,1111122 
SCCF RECON,ioos:station:SCCF:11:1,2017-08-03T21:00:00Z,26.4679,-82.0631,1.85,26.72,1111122 
SCCF RECON,ioos:station:SCCF:11:1,2017-08-03T22:00:00Z,26.4679,-82.0631,1.76,26.36,1111122 
SCCF RECON,ioos:station:SCCF:11:1,2017-08-03T23:00:00Z,26.4679,-82.0631,1.681,26.8,1111122 
SCCF RECON,ioos:station:SCCF:11:1,2017-08-04T00:00:00Z,26.4679,-82.0631,1.661,27.98,1111122 
SCCF RECON,ioos:station:SCCF:11:1,2017-08-04T01:00:00Z,26.4679,-82.0631,1.77,27.85,1111122 
SCCF RECON,ioos:station:SCCF:11:1,2017-08-04T02:00:00Z,26.4679,-82.0631,1.888,27.45,1111122 
SCCF RECON,ioos:station:SCCF:11:1,2017-08-04T03:00:00Z,26.4679,-82.0631,1.977,26.05,1111122 
SCCF RECON,ioos:station:SCCF:11:1,2017-08-04T04:00:00Z,26.4679,-82.0631,2.05,25.0,1111122 
SCCF RECON,ioos:station:SCCF:11:1,2017-08-04T05:00:00Z,26.4679,-82.0631,2.1,26.74,1111122 
SCCF RECON,ioos:station:SCCF:11:1,2017-08-04T06:00:00Z,26.4679,-82.0631,2.11,27.09,1111122 
SCCF RECON,ioos:station:SCCF:11:1,2017-08-04T07:00:00Z,26.4679,-82.0631,2.08,26.97,1111122 
SCCF RECON,ioos:station:SCCF:11:1,2017-08-04T08:00:00Z,26.4679,-82.0631,2.02,26.72,1111122 
SCCF RECON,ioos:station:SCCF:11:1,2017-08-04T09:00:00Z,26.4679,-82.0631,1.96,26.91,1111122 
SCCF RECON,ioos:station:SCCF:11:1,2017-08-04T10:00:00Z,26.4679,-82.0631,1.91,26.84,1111122 
SCCF RECON,ioos:station:SCCF:11:1,2017-08-04T11:00:00Z,26.4679,-82.0631,1.911,26.68,1111122 
SCCF RECON,ioos:station:SCCF:11:1,2017-08-04T12:00:00Z,26.4679,-82.0631,1.95,26.49,1111122 
SCCF RECON,ioos:station:SCCF:11:1,2017-08-04T13:00:00Z,26.4679,-82.0631,2.04,24.85,1111122 
SCCF RECON,ioos:station:SCCF:11:1,2017-08-04T14:00:00Z,26.4679,-82.0631,2.14,26.14,1111122 
SCCF RECON,ioos:station:SCCF:11:1,2017-08-04T15:00:00Z,26.4679,-82.0631,2.21,26.06,1111122 
SCCF RECON,ioos:station:SCCF:11:1,2017-08-04T16:00:00Z,26.4679,-82.0631,2.26,26.92,1111122 
SCCF RECON,ioos:station:SCCF:11:1,2017-08-04T17:00:00Z,26.4679,-82.0631,2.27,27.4,1111122 
SCCF RECON,ioos:station:SCCF:11:1,2017-08-04T18:00:00Z,26.4679,-82.0631,2.24,25.98,1111122 
SCCF RECON,ioos:station:SCCF:11:1,2017-08-04T19:00:00Z,26.4679,-82.0631,2.136,26.4,1111122 
SCCF RECON,ioos:station:SCCF:11:1,2017-08-04T20:00:00Z,26.4679,-82.0631,2.03,26.59,1111122 
SCCF RECON,ioos:station:SCCF:11:1,2017-08-04T21:00:00Z,26.4679,-82.0631,1.9,26.69,1111122 
SCCF RECON,ioos:station:SCCF:11:1,2017-08-04T22:00:00Z,26.4679,-82.0631,1.789,26.76,1111122 
SCCF RECON,ioos:station:SCCF:11:1,2017-08-04T23:00:00Z,26.4679,-82.0631,1.69,26.69,1111122 
SCCF RECON,ioos:station:SCCF:11:1,2017-08-05T00:00:00Z,26.4679,-82.0631,1.65,26.67,1111122 
SCCF RECON,ioos:station:SCCF:11:1,2017-08-05T01:00:00Z,26.4679,-82.0631,1.666,27.2,1111122 
SCCF RECON,ioos:station:SCCF:11:1,2017-08-05T02:00:00Z,26.4679,-82.0631,1.79,26.44,1111122 
SCCF RECON,ioos:station:SCCF:11:1,2017-08-05T03:00:00Z,26.4679,-82.0631,1.91,25.78,1111122 
SCCF RECON,ioos:station:SCCF:11:1,2017-08-05T04:00:00Z,26.4679,-82.0631,2.01,25.49,1111122 
SCCF RECON,ioos:station:SCCF:11:1,2017-08-05T05:00:00Z,26.4679,-82.0631,2.1,25.88,1111122 
SCCF RECON,ioos:station:SCCF:11:1,2017-08-05T06:00:00Z,26.4679,-82.0631,2.15,25.99,1111122 
SCCF RECON,ioos:station:SCCF:11:1,2017-08-05T07:00:00Z,26.4679,-82.0631,2.16,26.38,1111122 
SCCF RECON,ioos:station:SCCF:11:1,2017-08-05T08:00:00Z,26.4679,-82.0631,2.108,26.02,1111122 
SCCF RECON,ioos:station:SCCF:11:1,2017-08-05T09:00:00Z,26.4679,-82.0631,2.06,26.25,1111122 
SCCF RECON,ioos:station:SCCF:11:1,2017-08-05T10:00:00Z,26.4679,-82.0631,2.03,26.2,1111122 
SCCF RECON,ioos:station:SCCF:11:1,2017-08-05T11:00:00Z,26.4679,-82.0631,2.01,26.32,1111122 
SCCF RECON,ioos:station:SCCF:11:1,2017-08-05T12:00:00Z,26.4679,-82.0631,2.02,26.18,1111122 
SCCF RECON,ioos:station:SCCF:11:1,2017-08-05T13:00:00Z,26.4679,-82.0631,2.07,26.73,1111122 
SCCF RECON,ioos:station:SCCF:11:1,2017-08-05T14:00:00Z,26.4679,-82.0631,2.15,25.36,1111122 
SCCF RECON,ioos:station:SCCF:11:1,2017-08-05T15:00:00Z,26.4679,-82.0631,2.25,27.31,1111122 
SCCF RECON,ioos:station:SCCF:11:1,2017-08-05T16:00:00Z,26.4679,-82.0631,2.32,27.58,1111122 
SCCF RECON,ioos:station:SCCF:11:1,2017-08-05T17:00:00Z,26.4679,-82.0631,2.36,27.9,1111122 
SCCF RECON,ioos:station:SCCF:11:1,2017-08-05T18:00:00Z,26.4679,-82.0631,2.367,26.45,1111122 
SCCF RECON,ioos:station:SCCF:11:1,2017-08-05T19:00:00Z,26.4679,-82.0631,2.29,26.41,1111122 
SCCF RECON,ioos:station:SCCF:11:1,2017-08-05T20:00:00Z,26.4679,-82.0631,2.17,26.45,1111122 
SCCF RECON,ioos:station:SCCF:11:1,2017-08-05T21:00:00Z,26.4679,-82.0631,2.02,26.53,1111122 
SCCF RECON,ioos:station:SCCF:11:1,2017-08-05T22:00:00Z,26.4679,-82.0631,1.88,26.64,1111122 
SCCF RECON,ioos:station:SCCF:11:1,2017-08-05T23:00:00Z,26.4679,-82.0631,1.74,26.74,1111122 
SCCF RECON,ioos:station:SCCF:11:1,2017-08-06T00:00:00Z,26.4679,-82.0631,1.641,26.76,1111122 
SCCF RECON,ioos:station:SCCF:11:1,2017-08-06T01:00:00Z,26.4679,-82.0631,1.611,26.77,1111122 
SCCF RECON,ioos:station:SCCF:11:1,2017-08-06T02:00:00Z,26.4679,-82.0631,1.68,27.08,1111122 
SCCF RECON,ioos:station:SCCF:11:1,2017-08-06T03:00:00Z,26.4679,-82.0631,1.76,22.92,1111122 
SCCF RECON,ioos:station:SCCF:11:1,2017-08-06T04:00:00Z,26.4679,-82.0631,1.9,23.99,1111122 
SCCF RECON,ioos:station:SCCF:11:1,2017-08-06T05:00:00Z,26.4679,-82.0631,2.02,24.42,1111122 
SCCF RECON,ioos:station:SCCF:11:1,2017-08-06T06:00:00Z,26.4679,-82.0631,2.095,24.64,1111122 
SCCF RECON,ioos:station:SCCF:11:1,2017-08-06T07:00:00Z,26.4679,-82.0631,2.126,24.83,1111122 
SCCF RECON,ioos:station:SCCF:11:1,2017-08-06T08:00:00Z,26.4679,-82.0631,2.082,24.91,1111122 
SCCF RECON,ioos:station:SCCF:11:1,2017-08-06T09:00:00Z,26.4679,-82.0631,2.02,25.13,1111122 
SCCF RECON,ioos:station:SCCF:11:1,2017-08-06T10:00:00Z,26.4679,-82.0631,1.96,25.82,1111122 
SCCF RECON,ioos:station:SCCF:11:1,2017-08-06T11:00:00Z,26.4679,-82.0631,1.92,25.84,1111122 
SCCF RECON,ioos:station:SCCF:11:1,2017-08-06T12:00:00Z,26.4679,-82.0631,1.902,25.53,1111122 
SCCF RECON,ioos:station:SCCF:11:1,2017-08-06T13:00:00Z,26.4679,-82.0631,1.959,26.37,1111122 
SCCF RECON,ioos:station:SCCF:11:1,2017-08-06T14:00:00Z,26.4679,-82.0631,2.054,25.45,1111122 
SCCF RECON,ioos:station:SCCF:11:1,2017-08-06T15:00:00Z,26.4679,-82.0631,2.162,25.96,1111122 
SCCF RECON,ioos:station:SCCF:11:1,2017-08-06T16:00:00Z,26.4679,-82.0631,2.266,26.78,1111122 
SCCF RECON,ioos:station:SCCF:11:1,2017-08-06T17:00:00Z,26.4679,-82.0631,2.32,26.55,1111122 
SCCF RECON,ioos:station:SCCF:11:1,2017-08-06T18:00:00Z,26.4679,-82.0631,2.32,26.94,1111122 
SCCF RECON,ioos:station:SCCF:11:1,2017-08-06T19:00:00Z,26.4679,-82.0631,2.32,25.72,1111122 
SCCF RECON,ioos:station:SCCF:11:1,2017-08-06T20:00:00Z,26.4679,-82.0631,2.2,25.78,1111122 
SCCF RECON,ioos:station:SCCF:11:1,2017-08-06T21:00:00Z,26.4679,-82.0631,2.05,25.91,1111122 
SCCF RECON,ioos:station:SCCF:11:1,2017-08-06T22:00:00Z,26.4679,-82.0631,1.91,26.05,1111122 
SCCF RECON,ioos:station:SCCF:11:1,2017-08-06T23:00:00Z,26.4679,-82.0631,1.77,26.19,1111122 
SCCF RECON,ioos:station:SCCF:11:1,2017-08-07T00:00:00Z,26.4679,-82.0631,1.65,26.31,1111122 
SCCF RECON,ioos:station:SCCF:11:1,2017-08-07T01:00:00Z,26.4679,-82.0631,1.58,26.23,1111122 
SCCF RECON,ioos:station:SCCF:11:1,2017-08-07T02:00:00Z,26.4679,-82.0631,1.608,26.24,1111122 
SCCF RECON,ioos:station:SCCF:11:1,2017-08-07T03:00:00Z,26.4679,-82.0631,1.7,24.7,1111122 
SCCF RECON,ioos:station:SCCF:11:1,2017-08-07T04:00:00Z,26.4679,-82.0631,1.81,23.9,1111122 
SCCF RECON,ioos:station:SCCF:11:1,2017-08-07T05:00:00Z,26.4679,-82.0631,1.94,24.05,1111122 
SCCF RECON,ioos:station:SCCF:11:1,2017-08-07T06:00:00Z,26.4679,-82.0631,2.03,24.01,1111122 
SCCF RECON,ioos:station:SCCF:11:1,2017-08-07T07:00:00Z,26.4679,-82.0631,2.08,24.5,1111122 
SCCF RECON,ioos:station:SCCF:11:1,2017-08-07T08:00:00Z,26.4679,-82.0631,2.08,25.23,1111122 
SCCF RECON,ioos:station:SCCF:11:1,2017-08-07T09:00:00Z,26.4679,-82.0631,2.021,24.44,1111122 
SCCF RECON,ioos:station:SCCF:11:1,2017-08-07T10:00:00Z,26.4679,-82.0631,1.963,24.72,1111122 
SCCF RECON,ioos:station:SCCF:11:1,2017-08-07T11:00:00Z,26.4679,-82.0631,1.938,25.1,1111122 
SCCF RECON,ioos:station:SCCF:11:1,2017-08-07T12:00:00Z,26.4679,-82.0631,1.931,25.48,1111122 
SCCF RECON,ioos:station:SCCF:11:1,2017-08-07T13:00:00Z,26.4679,-82.0631,1.93,26.93,1111122 
SCCF RECON,ioos:station:SCCF:11:1,2017-08-07T14:00:00Z,26.4679,-82.0631,2.01,25.91,1111122 
SCCF RECON,ioos:station:SCCF:11:1,2017-08-07T15:00:00Z,26.4679,-82.0631,2.128,25.58,1111122 
SCCF RECON,ioos:station:SCCF:11:1,2017-08-07T16:00:00Z,26.4679,-82.0631,2.24,27.85,1111122 
SCCF RECON,ioos:station:SCCF:11:1,2017-08-07T17:00:00Z,26.4679,-82.0631,2.33,28.24,1111122 
SCCF RECON,ioos:station:SCCF:11:1,2017-08-07T18:00:00Z,26.4679,-82.0631,2.37,28.55,1111122 
SCCF RECON,ioos:station:SCCF:11:1,2017-08-07T19:00:00Z,26.4679,-82.0631,2.35,27.41,1111122 
SCCF RECON,ioos:station:SCCF:11:1,2017-08-07T20:00:00Z,26.4679,-82.0631,2.31,25.85,1111122 
SCCF RECON,ioos:station:SCCF:11:1,2017-08-07T21:00:00Z,26.4679,-82.0631,2.16,25.98,1111122 
SCCF RECON,ioos:station:SCCF:11:1,2017-08-07T22:00:00Z,26.4679,-82.0631,2.02,25.98,1111122 
SCCF RECON,ioos:station:SCCF:11:1,2017-08-07T23:00:00Z,26.4679,-82.0631,1.87,26.06,1111122 
SCCF RECON,ioos:station:SCCF:11:1,2017-08-08T00:00:00Z,26.4679,-82.0631,1.74,26.23,1111122 
SCCF RECON,ioos:station:SCCF:11:1,2017-08-08T01:00:00Z,26.4679,-82.0631,1.63,26.14,1111122 
SCCF RECON,ioos:station:SCCF:11:1,2017-08-08T02:00:00Z,26.4679,-82.0631,1.6,26.75,1111122 
SCCF RECON,ioos:station:SCCF:11:1,2017-08-08T03:00:00Z,26.4679,-82.0631,1.711,26.82,1111122 
SCCF RECON,ioos:station:SCCF:11:1,2017-08-08T04:00:00Z,26.4679,-82.0631,1.88,23.66,1111122 
SCCF RECON,ioos:station:SCCF:11:1,2017-08-08T05:00:00Z,26.4679,-82.0631,2.019,25.24,1111122 
SCCF RECON,ioos:station:SCCF:11:1,2017-08-08T06:00:00Z,26.4679,-82.0631,2.1,25.43,1111122 
SCCF RECON,ioos:station:SCCF:11:1,2017-08-08T07:00:00Z,26.4679,-82.0631,2.14,25.44,1111122 
SCCF RECON,ioos:station:SCCF:11:1,2017-08-08T08:00:00Z,26.4679,-82.0631,2.12,24.82,1111122 
SCCF RECON,ioos:station:SCCF:11:1,2017-08-08T09:00:00Z,26.4679,-82.0631,2.06,25.2,1111122 
SCCF RECON,ioos:station:SCCF:11:1,2017-08-08T10:00:00Z,26.4679,-82.0631,1.98,25.55,1111122 
SCCF RECON,ioos:station:SCCF:11:1,2017-08-08T11:00:00Z,26.4679,-82.0631,1.9,25.81,1111122 
SCCF RECON,ioos:station:SCCF:11:1,2017-08-08T12:00:00Z,26.4679,-82.0631,1.84,25.77,1111122 
SCCF RECON,ioos:station:SCCF:11:1,2017-08-08T13:00:00Z,26.4679,-82.0631,1.854,25.78,1111122 
SCCF RECON,ioos:station:SCCF:11:1,2017-08-08T14:00:00Z,26.4679,-82.0631,1.938,26.38,1111122 
SCCF RECON,ioos:station:SCCF:11:1,2017-08-08T15:00:00Z,26.4679,-82.0631,2.084,25.44,1111122 
SCCF RECON,ioos:station:SCCF:11:1,2017-08-08T16:00:00Z,26.4679,-82.0631,2.21,26.05,1111122 
SCCF RECON,ioos:station:SCCF:11:1,2017-08-08T17:00:00Z,26.4679,-82.0631,2.29,27.35,1111122 
SCCF RECON,ioos:station:SCCF:11:1,2017-08-08T18:00:00Z,26.4679,-82.0631,2.34,27.27,1111122 
SCCF RECON,ioos:station:SCCF:11:1,2017-08-08T19:00:00Z,26.4679,-82.0631,2.344,28.83,1111122 
SCCF RECON,ioos:station:SCCF:11:1,2017-08-08T20:00:00Z,26.4679,-82.0631,2.31,26.68,1111122 
SCCF RECON,ioos:station:SCCF:11:1,2017-08-08T21:00:00Z,26.4679,-82.0631,2.183,25.9,1111122 
SCCF RECON,ioos:station:SCCF:11:1,2017-08-08T22:00:00Z,26.4679,-82.0631,2.017,25.77,1111122 
SCCF RECON,ioos:station:SCCF:11:1,2017-08-08T23:00:00Z,26.4679,-82.0631,1.85,25.85,1111122 
SCCF RECON,ioos:station:SCCF:11:1,2017-08-09T00:00:00Z,26.4679,-82.0631,1.719,26.03,1111122 
SCCF RECON,ioos:station:SCCF:11:1,2017-08-09T01:00:00Z,26.4679,-82.0631,1.6,26.04,1111122 
SCCF RECON,ioos:station:SCCF:11:1,2017-08-09T02:00:00Z,26.4679,-82.0631,1.56,26.34,1111122 
SCCF RECON,ioos:station:SCCF:11:1,2017-08-09T03:00:00Z,26.4679,-82.0631,1.638,27.71,1111122 
SCCF RECON,ioos:station:SCCF:11:1,2017-08-09T04:00:00Z,26.4679,-82.0631,1.812,26.51,1111122 
SCCF RECON,ioos:station:SCCF:11:1,2017-08-09T05:00:00Z,26.4679,-82.0631,1.96,26.37,1111122 
SCCF RECON,ioos:station:SCCF:11:1,2017-08-09T06:00:00Z,26.4679,-82.0631,2.06,26.05,1111122 
SCCF RECON,ioos:station:SCCF:11:1,2017-08-09T07:00:00Z,26.4679,-82.0631,2.13,26.01,1111122 
SCCF RECON,ioos:station:SCCF:11:1,2017-08-09T08:00:00Z,26.4679,-82.0631,2.16,26.09,1111122 
SCCF RECON,ioos:station:SCCF:11:1,2017-08-09T09:00:00Z,26.4679,-82.0631,2.111,25.92,1111122 
SCCF RECON,ioos:station:SCCF:11:1,2017-08-09T10:00:00Z,26.4679,-82.0631,2.01,26.02,1111122 
SCCF RECON,ioos:station:SCCF:11:1,2017-08-09T11:00:00Z,26.4679,-82.0631,1.94,26.14,1111122 
SCCF RECON,ioos:station:SCCF:11:1,2017-08-09T12:00:00Z,26.4679,-82.0631,1.89,26.14,1111122 
SCCF RECON,ioos:station:SCCF:11:1,2017-08-09T13:00:00Z,26.4679,-82.0631,1.85,26.18,1111122 
SCCF RECON,ioos:station:SCCF:11:1,2017-08-09T14:00:00Z,26.4679,-82.0631,1.869,26.17,1111122 
SCCF RECON,ioos:station:SCCF:11:1,2017-08-09T15:00:00Z,26.4679,-82.0631,1.95,26.66,1111122 
SCCF RECON,ioos:station:SCCF:11:1,2017-08-09T16:00:00Z,26.4679,-82.0631,2.09,25.66,1111122 
SCCF RECON,ioos:station:SCCF:11:1,2017-08-09T17:00:00Z,26.4679,-82.0631,2.22,26.09,1111122 
SCCF RECON,ioos:station:SCCF:11:1,2017-08-09T18:00:00Z,26.4679,-82.0631,2.3,26.92,1111122 
SCCF RECON,ioos:station:SCCF:11:1,2017-08-09T19:00:00Z,26.4679,-82.0631,2.35,26.95,1111122 
SCCF RECON,ioos:station:SCCF:11:1,2017-08-09T20:00:00Z,26.4679,-82.0631,2.36,25.8,1111122 
SCCF RECON,ioos:station:SCCF:11:1,2017-08-09T21:00:00Z,26.4679,-82.0631,2.22,25.87,1111122 
SCCF RECON,ioos:station:SCCF:11:1,2017-08-09T22:00:00Z,26.4679,-82.0631,2.067,25.99,1111122 
SCCF RECON,ioos:station:SCCF:11:1,2017-08-09T23:00:00Z,26.4679,-82.0631,1.904,26.04,1111122 
SCCF RECON,ioos:station:SCCF:11:1,2017-08-10T00:00:00Z,26.4679,-82.0631,1.77,26.11,1111122 
SCCF RECON,ioos:station:SCCF:11:1,2017-08-10T01:00:00Z,26.4679,-82.0631,1.651,26.15,1111122 
SCCF RECON,ioos:station:SCCF:11:1,2017-08-10T02:00:00Z,26.4679,-82.0631,1.59,26.1,1111122 
SCCF RECON,ioos:station:SCCF:11:1,2017-08-10T03:00:00Z,26.4679,-82.0631,1.6,26.16,1111122 
SCCF RECON,ioos:station:SCCF:11:1,2017-08-10T04:00:00Z,26.4679,-82.0631,1.7,26.2,1111122 
SCCF RECON,ioos:station:SCCF:11:1,2017-08-10T05:00:00Z,26.4679,-82.0631,1.83,26.05,1111122 
SCCF RECON,ioos:station:SCCF:11:1,2017-08-10T06:00:00Z,26.4679,-82.0631,1.955,26.02,1111122 
SCCF RECON,ioos:station:SCCF:11:1,2017-08-10T07:00:00Z,26.4679,-82.0631,2.06,25.73,1111122 
SCCF RECON,ioos:station:SCCF:11:1,2017-08-10T08:00:00Z,26.4679,-82.0631,2.11,25.9,1111122 
SCCF RECON,ioos:station:SCCF:11:1,2017-08-10T09:00:00Z,26.4679,-82.0631,2.11,25.91,1111122 
SCCF RECON,ioos:station:SCCF:11:1,2017-08-10T10:00:00Z,26.4679,-82.0631,2.05,25.9,1111122 
SCCF RECON,ioos:station:SCCF:11:1,2017-08-10T11:00:00Z,26.4679,-82.0631,1.96,26.07,1111122 
SCCF RECON,ioos:station:SCCF:11:1,2017-08-10T12:00:00Z,26.4679,-82.0631,1.87,26.11,1111122 
SCCF RECON,ioos:station:SCCF:11:1,2017-08-10T13:00:00Z,26.4679,-82.0631,1.802,26.1,1111122 
SCCF RECON,ioos:station:SCCF:11:1,2017-08-10T14:00:00Z,26.4679,-82.0631,1.77,26.11,1111122 
SCCF RECON,ioos:station:SCCF:11:1,2017-08-10T15:00:00Z,26.4679,-82.0631,1.813,26.12,1111122 
SCCF RECON,ioos:station:SCCF:11:1,2017-08-10T16:00:00Z,26.4679,-82.0631,1.937,25.84,1111122 
SCCF RECON,ioos:station:SCCF:11:1,2017-08-10T19:00:00Z,26.4679,-82.0631,1.758,26.04,1111122 
SCCF RECON,ioos:station:SCCF:11:1,2017-08-10T20:00:00Z,26.4679,-82.0631,2.053,27.16,1111122 
SCCF RECON,ioos:station:SCCF:11:1,2017-08-10T21:00:00Z,26.4679,-82.0631,2.159,25.41,1111122 
SCCF RECON,ioos:station:SCCF:11:1,2017-08-10T22:00:00Z,26.4679,-82.0631,2.1,25.65,1111122 
SCCF RECON,ioos:station:SCCF:11:1,2017-08-10T23:00:00Z,26.4679,-82.0631,1.96,25.85,1111122 
SCCF RECON,ioos:station:SCCF:11:1,2017-08-11T00:00:00Z,26.4679,-82.0631,1.83,25.98,1111122 
SCCF RECON,ioos:station:SCCF:11:1,2017-08-11T01:00:00Z,26.4679,-82.0631,1.72,25.9,1111122 
SCCF RECON,ioos:station:SCCF:11:1,2017-08-11T02:00:00Z,26.4679,-82.0631,1.6,26.06,1111122 
SCCF RECON,ioos:station:SCCF:11:1,2017-08-11T03:00:00Z,26.4679,-82.0631,1.549,26.03,1111122 
SCCF RECON,ioos:station:SCCF:11:1,2017-08-11T04:00:00Z,26.4679,-82.0631,1.58,26.28,1111122 
SCCF RECON,ioos:station:SCCF:11:1,2017-08-11T05:00:00Z,26.4679,-82.0631,1.71,26.54,1111122 
SCCF RECON,ioos:station:SCCF:11:1,2017-08-11T06:00:00Z,26.4679,-82.0631,1.86,26.42,1111122 
SCCF RECON,ioos:station:SCCF:11:1,2017-08-11T07:00:00Z,26.4679,-82.0631,1.99,26.15,1111122 
SCCF RECON,ioos:station:SCCF:11:1,2017-08-11T08:00:00Z,26.4679,-82.0631,2.08,26.04,1111122 
SCCF RECON,ioos:station:SCCF:11:1,2017-08-11T09:00:00Z,26.4679,-82.0631,2.12,26.32,1111122 
SCCF RECON,ioos:station:SCCF:11:1,2017-08-11T10:00:00Z,26.4679,-82.0631,2.121,26.09,1111122 
SCCF RECON,ioos:station:SCCF:11:1,2017-08-11T11:00:00Z,26.4679,-82.0631,2.033,26.14,1111122 
SCCF RECON,ioos:station:SCCF:11:1,2017-08-11T12:00:00Z,26.4679,-82.0631,1.89,26.03,1111122 
SCCF RECON,ioos:station:SCCF:11:1,2017-08-11T13:00:00Z,26.4679,-82.0631,1.77,26.01,1111122 
SCCF RECON,ioos:station:SCCF:11:1,2017-08-11T14:00:00Z,26.4679,-82.0631,1.73,26.01,1111122 
SCCF RECON,ioos:station:SCCF:11:1,2017-08-11T15:00:00Z,26.4679,-82.0631,1.726,26.05,1111122 
SCCF RECON,ioos:station:SCCF:11:1,2017-08-11T16:00:00Z,26.4679,-82.0631,1.78,26.63,1111122 
SCCF RECON,ioos:station:SCCF:11:1,2017-08-11T17:00:00Z,26.4679,-82.0631,1.88,26.21,1111122 
SCCF RECON,ioos:station:SCCF:11:1,2017-08-11T18:00:00Z,26.4679,-82.0631,2.01,26.2,1111122 
SCCF RECON,ioos:station:SCCF:11:1,2017-08-11T19:00:00Z,26.4679,-82.0631,2.1,26.21,1111122 
SCCF RECON,ioos:station:SCCF:11:1,2017-08-11T20:00:00Z,26.4679,-82.0631,2.169,26.46,1111122 